Weather History for Cocoa Beach, FL

Change the Weather History Date:

Tuesday, July 9, 2013

  Actual Average (KCOF) Record (KCOF)
Temperature  
Mean Temperature 78 °F -  
Max Temperature 86 °F 85 °F 93 °F (1998)
Min Temperature 70 °F 74 °F 73 °F (1996)
Cooling Degree Days 12    
Growing Degree Days 28 (Base 50)    
Moisture  
Dew Point 73 °F    
Average Humidity 85    
Maximum Humidity 99    
Minimum Humidity 66    
Precipitation  
Precipitation 0.00 in - - ()
Sea Level Pressure  
Sea Level Pressure 30.14 in    
Wind  
Wind Speed 4 mph (ENE)    
Max Wind Speed 12 mph    
Max Gust Speed -    
Visibility 9 miles    
Events Rain    
Averages and records for this station are not official NWS values.
T = Trace of Precipitation, MM = Missing Value Source: NWS Daily Summary

Daily Weather History Graph

Daily Weather History Graph

Search for Another Location

Airport:

Trip Planner

Search our weather history database for the weather conditions in past years. The results will help you decide how hot, cold, wet, or windy it might be!

Date:

Astronomy

Jul. 09, 2013 Rise Set
Actual Time 6:31 AM EDT 8:23 PM EDT
Civil Twilight 6:05 AM EDT 8:49 PM EDT
Nautical Twilight 5:33 AM EDT 9:21 PM EDT
Astronomical Twilight 4:59 AM EDT 9:55 PM EDT
Moon 7:44 AM EDT (7/9) 9:12 PM EDT (7/9)
Length of Visible Light 14h 44m
Length of Day
13h 51m
New Moon, 2% of the Moon is Illuminated
Jul 9
New Moon
Jul 15
First Quarter
Jul 22
Full
Jul 29
Last Quarter
Aug 6
New

Hourly Weather History & Observations

Time (EDT) Temp. Heat Index Dew Point Humidity Pressure Visibility Wind Dir Wind Speed Gust Speed Precip Events Conditions
12:58 AM 74.3 °F - 73.4 °F 97% 30.17 in 10.0 mi ESE 2.3 mph - N/A   Clear
1:58 AM 73.0 °F - 72.3 °F 98% 30.15 in 10.0 mi Calm Calm - N/A   Clear
2:58 AM 72.5 °F - 71.6 °F 97% 30.15 in 10.0 mi ENE 3.5 mph - N/A   Clear
3:58 AM 70.9 °F - 69.8 °F 96% 30.13 in 10.0 mi Calm Calm - N/A   Clear
4:58 AM 72.0 °F - 71.6 °F 99% 30.13 in 10.0 mi East 4.6 mph - N/A   Clear
5:58 AM 71.1 °F - 70.9 °F 99% 30.14 in 10.0 mi NE 4.6 mph - N/A   Clear
6:58 AM 73.2 °F - 72.5 °F 98% 30.15 in 10.0 mi ENE 3.5 mph - N/A   Clear
7:58 AM 78.8 °F - 75.4 °F 89% 30.16 in 10.0 mi NE 3.5 mph - N/A   Clear
8:58 AM 82.2 °F 88.5 °F 74.5 °F 77% 30.18 in 10.0 mi NNE 6.9 mph - N/A   Clear
9:58 AM 83.7 °F 90.4 °F 73.6 °F 72% 30.18 in 6.0 mi ENE 8.1 mph - N/A   Haze
10:58 AM 84.9 °F 92.5 °F 74.3 °F 70% 30.18 in 10.0 mi ENE 9.2 mph - N/A   Clear
11:58 AM 84.9 °F 93.7 °F 75.2 °F 73% 30.19 in 10.0 mi NE 10.4 mph - N/A   Clear
12:58 PM 83.1 °F 88.9 °F 73.0 °F 71% 30.19 in 10.0 mi ENE 6.9 mph - N/A   Partly Cloudy
1:06 PM 82.4 °F 88.2 °F 73.4 °F 74% 30.18 in 10.0 mi ENE 6.9 mph - N/A Rain Light Rain
1:20 PM 84.2 °F 89.6 °F 71.6 °F 66% 30.17 in 10.0 mi NE 6.9 mph - N/A   Partly Cloudy
1:58 PM 85.6 °F 93.0 °F 73.8 °F 67% 30.17 in 10.0 mi ENE 11.5 mph - 0.00 in   Partly Cloudy
2:58 PM 85.5 °F 94.6 °F 75.4 °F 72% 30.15 in 10.0 mi Variable 6.9 mph - N/A   Clear
3:58 PM 83.7 °F 90.1 °F 73.2 °F 71% 30.13 in 10.0 mi Variable 5.8 mph - N/A   Clear
4:58 PM 83.8 °F 89.5 °F 72.3 °F 68% 30.11 in 10.0 mi ENE 6.9 mph - N/A   Clear
5:58 PM 83.3 °F 89.9 °F 73.8 °F 73% 30.11 in 10.0 mi ENE 6.9 mph - N/A   Clear
6:58 PM 82.2 °F 88.5 °F 74.5 °F 77% 30.11 in 10.0 mi East 5.8 mph - N/A   Clear
7:58 PM 80.6 °F 85.9 °F 74.7 °F 82% 30.10 in 10.0 mi NE 4.6 mph - N/A   Clear
8:58 PM 77.2 °F - 73.8 °F 89% 30.11 in 10.0 mi NE 3.5 mph - N/A   Clear
9:58 PM 76.6 °F - 73.2 °F 89% 30.12 in 10.0 mi NNE 3.5 mph - N/A   Clear
10:08 PM 75.2 °F - 73.4 °F 94% 30.10 in 7.0 mi NE 3.5 mph - N/A   Clear
10:23 PM 75.2 °F - 73.4 °F 94% 30.10 in 10.0 mi NE 3.5 mph - N/A   Clear
10:28 PM 75.2 °F - 73.4 °F 94% 30.10 in 9.0 mi NE 4.6 mph - N/A   Clear
10:48 PM 75.2 °F - 73.4 °F 94% 30.11 in 10.0 mi ENE 3.5 mph - N/A   Clear
10:53 PM 75.2 °F - 73.4 °F 94% 30.11 in 9.0 mi ENE 3.5 mph - N/A   Clear
10:58 PM 75.4 °F - 73.2 °F 93% 30.11 in 5.0 mi ENE 3.5 mph - N/A   Clear
11:03 PM 75.2 °F - 73.4 °F 94% 30.11 in 4.0 mi ENE 4.6 mph - N/A   Clear
11:13 PM 75.2 °F - 73.4 °F 94% 30.10 in 6.0 mi ENE 4.6 mph - N/A   Clear
11:33 PM 75.2 °F - 73.4 °F 94% 30.11 in 10.0 mi ENE 3.5 mph - N/A   Clear
11:58 PM 75.2 °F - 73.6 °F 95% 30.11 in 10.0 mi NNE 4.6 mph - N/A   Partly Cloudy